ハウエル彗星

88P/Howell (2026)

English version
Home page
Updated on January 28, 2024

---------------------------------------------------------------------

・ プロフィール

・ 軌道要素

Epoch 2026 Mar. 21.0 TT = JDT 2461120.5                                         
T 2026 Mar. 18.74082 TT                                 Rudenko                 
q   1.3577961            (2000.0)            P               Q                  
n   0.17976928     Peri.  235.87020     +0.38129389     +0.92224739             
a   3.1092744      Node    56.66899     -0.82102657     +0.36956281             
e   0.5633077      Incl.    4.38171     -0.42488862     +0.11350365             
P   5.48                                                                        
From 4419 observations 1981 Sept. 3-2021 Feb. 19, mean residual 0".8.           
     Nongravitational parameters A1 = -0.01, A2 = -0.0130.                      

・ 星図

・ 光度変化

        m1 = 12.0 + 5 logΔ + 10.0 log r          [    ,-287]  (              〜2025年 6月 4日)
        m1 =  4.7 + 5 logΔ + 25.0 log r(t - 15)  [-287,  15]  (2025年 6月 4日〜2026年 4月 2日)
        m1 =  5.2 + 5 logΔ + 20.0 log r          [  15,    ]  (2026年 4月 2日〜              )

---------------------------------------------------------------------

軌道要素はM.P.E.C. 2021-F20に掲載されたものです。
星図はステラナビゲータ Ver.10 (アストロアーツ) で作成したものです。
光度グラフはComet for Windowsで作成したものです。

---------------------------------------------------------------------

Copyright(C) Seiichi Yoshida (comet@aerith.net). All rights reserved.